Change the Weather History Date:

Sunday, March 24, 2013

  Actual Average Record
Temperature  
Mean Temperature 39 °F 48 °F  
Max Temperature 43 °F 58 °F 85 °F (1910)
Min Temperature 35 °F 38 °F 14 °F (1896)
Degree Days  
Heating Degree Days 26 17  
Month to date heating degree days 615 495  
Since 1 July heating degree days 4123 4066  
Cooling Degree Days 0 0  
Month to date cooling degree days 0 0  
Year to date cooling degree days 0 0  
Moisture  
Dew Point 34 °F    
Average Humidity 73    
Maximum Humidity 100    
Minimum Humidity 45    
Precipitation  
Precipitation 1.13 in 0.13 in 1.13 in (2013)
Month to date precipitation 5.05 3.13  
Year to date precipitation 11.03 9.53  
Snow  
Snow 0.00 in 0.00 in 2.50 in (1990)
Month to date snowfall 2.5 1.2  
Since 1 July snowfall 11.0 12.5  
Snow Depth 0.00 in    
Sea Level Pressure  
Sea Level Pressure 29.54 in    
Wind  
Wind Speed 11 mph (ENE)    
Max Wind Speed 24 mph    
Max Gust Speed 33 mph    
Visibility 5 miles    
Events Rain , Thunderstorm    
T = Trace of Precipitation, MM = Missing Value Source: NWS Daily Summary

Daily Weather History Graph

Daily Weather History Graph

Search for Another Location

Airport or City:

Trip Planner

Search our weather history database for the weather conditions in past years. The results will help you decide how hot, cold, wet, or windy it might be!

Date:

Astronomy

Mar. 24, 2013 Rise Set
Actual Time 7:35 AM EDT 7:54 PM EDT
Civil Twilight 7:09 AM EDT 8:20 PM EDT
Nautical Twilight 6:38 AM EDT 8:51 PM EDT
Astronomical Twilight 6:06 AM EDT 9:23 PM EDT
Moon 5:23 PM EDT (3/24) 5:42 AM EDT (3/24)
Length of Visible Light 13h 11m
Length of Day
12h 18m
Waxing Gibbous, 91% of the Moon is Illuminated
Mar 24
Waxing Gibbous
Mar 27
Full
Apr 3
Last Quarter
Apr 10
New
Apr 18
First Quarter

Hourly Weather History & Observations

Time (EDT) Temp. Windchill Dew Point Humidity Pressure Visibility Wind Dir Wind Speed Gust Speed Precip Events Conditions
12:54 AM 42.1 °F 36.6 °F 25.0 °F 51% 29.83 in 10.0 mi NE 9.2 mph - N/A   Clear
1:54 AM 43.0 °F 36.4 °F 23.0 °F 45% 29.82 in 10.0 mi East 12.7 mph - N/A   Clear
2:54 AM 43.0 °F 36.0 °F 23.0 °F 45% 29.81 in 10.0 mi ENE 13.8 mph - N/A   Overcast
3:54 AM 42.1 °F 35.2 °F 23.0 °F 47% 29.76 in 10.0 mi NE 12.7 mph - N/A   Overcast
4:54 AM 39.9 °F 33.4 °F 26.1 °F 58% 29.75 in 10.0 mi NE 10.4 mph - 0.00 in Rain Light Rain
5:54 AM 39.0 °F 31.0 °F 28.9 °F 67% 29.71 in 10.0 mi ENE 13.8 mph - 0.01 in Rain Light Rain
6:54 AM 37.9 °F 29.6 °F 30.0 °F 73% 29.69 in 9.0 mi NE 13.8 mph - 0.02 in Rain Light Rain
7:22 AM 37.4 °F 29.3 °F 30.2 °F 75% 29.67 in 7.0 mi ENE 12.7 mph - 0.02 in Rain Light Rain
7:54 AM 37.0 °F 29.8 °F 30.9 °F 79% 29.67 in 5.0 mi ENE 10.4 mph - 0.07 in Rain Rain
8:54 AM 36.0 °F 29.0 °F 32.0 °F 86% 29.67 in 3.0 mi NE 9.2 mph - 0.11 in Rain Rain
8:56 AM 35.6 °F 29.2 °F 32.0 °F 87% 29.66 in 2.5 mi NE 8.1 mph - 0.00 in Rain Rain
9:54 AM 35.1 °F 25.5 °F 32.0 °F 89% 29.65 in 2.5 mi NE 15.0 mph - 0.15 in Rain Heavy Rain
10:38 AM 35.6 °F 26.6 °F 33.8 °F 93% 29.62 in 4.0 mi NE 13.8 mph - 0.13 in Rain Light Rain
10:54 AM 35.1 °F 27.4 °F 33.1 °F 92% 29.63 in 3.0 mi NNE 10.4 mph - 0.14 in Rain Light Rain
11:02 AM 35.6 °F 28.0 °F 33.8 °F 93% 29.62 in 2.5 mi NNE 10.4 mph - 0.02 in Rain Rain
11:16 AM 35.6 °F 27.5 °F 33.8 °F 93% 29.61 in 3.0 mi NE 11.5 mph - 0.04 in Rain Light Rain
11:25 AM 35.6 °F 25.5 °F 33.8 °F 93% 29.59 in 2.5 mi NE 17.3 mph - 0.04 in Rain Light Rain
11:54 AM 36.0 °F 28.0 °F 34.0 °F 93% 29.60 in 2.5 mi ENE 11.5 mph - 0.06 in Rain Light Rain
11:57 AM 35.6 °F 27.5 °F 33.8 °F 93% 29.59 in 5.0 mi ENE 11.5 mph - 0.00 in Rain Light Rain
12:40 PM 35.6 °F 25.9 °F 33.8 °F 93% 29.58 in 2.5 mi ENE 16.1 mph - 0.01 in Rain Light Rain
12:54 PM 37.0 °F 29.8 °F 34.0 °F 89% 29.58 in 2.5 mi ENE 10.4 mph - 0.01 in Rain Light Rain
1:54 PM 37.9 °F 29.2 °F 35.1 °F 89% 29.52 in 2.5 mi ENE 15.0 mph - 0.06 in Rain Light Rain
2:01 PM 37.4 °F 29.3 °F 35.6 °F 93% 29.50 in 7.0 mi ENE 12.7 mph - 0.00 in Rain Light Rain
2:54 PM 39.0 °F 30.3 °F 37.0 °F 93% 29.45 in 7.0 mi East 16.1 mph - 0.00 in   Overcast
3:54 PM 39.0 °F 34.0 °F 37.0 °F 93% 29.46 in 6.0 mi NE 6.9 mph - N/A   Overcast
4:17 PM 39.2 °F 33.0 °F 37.4 °F 93% 29.44 in 1.8 mi NE 9.2 mph - 0.00 in Rain Light Rain
4:31 PM 37.4 °F 28.9 °F 37.4 °F 100% 29.41 in 1.0 mi NE 13.8 mph - 0.01 in Rain Light Rain
4:54 PM 39.0 °F 31.4 °F 37.0 °F 93% 29.40 in 1.8 mi NE 12.7 mph - 0.01 in Rain Light Rain
5:01 PM 39.2 °F 30.8 °F 37.4 °F 93% 29.39 in 2.5 mi NE 15.0 mph - 0.00 in Rain Light Rain
5:06 PM 39.2 °F 32.0 °F 37.4 °F 93% 29.39 in 3.0 mi NE 11.5 mph - 0.01 in Rain , Thunderstorm Light Thunderstorms and Rain
5:21 PM 37.4 °F 30.3 °F 37.4 °F 100% 29.40 in 2.0 mi ENE 10.4 mph - 0.04 in Rain , Thunderstorm Thunderstorms and Rain
5:54 PM 37.9 °F 28.5 °F 37.0 °F 97% 29.39 in 1.5 mi ENE 17.3 mph 23.0 mph 0.16 in Rain Heavy Rain
6:05 PM 37.4 °F 27.5 °F 35.6 °F 93% 29.37 in 2.5 mi ENE 18.4 mph - 0.02 in Rain Rain
6:34 PM 37.4 °F - 37.4 °F 100% 29.42 in 2.0 mi Calm Calm - 0.16 in Rain Rain
6:54 PM 37.9 °F - 37.0 °F 97% 29.44 in 2.0 mi Calm Calm - 0.22 in Rain Rain
7:17 PM 39.2 °F - 37.4 °F 93% 29.43 in 3.0 mi Calm Calm - 0.04 in Rain Light Rain
7:24 PM 39.2 °F - 37.4 °F 93% 29.43 in 3.0 mi Calm Calm - 0.05 in Rain Light Rain
7:54 PM 39.0 °F - 37.0 °F 93% 29.43 in 7.0 mi Calm Calm - 0.06 in   Overcast
8:02 PM 39.2 °F 35.9 °F 37.4 °F 93% 29.42 in 6.0 mi ESE 4.6 mph - N/A   Overcast
8:15 PM 39.2 °F - 37.4 °F 93% 29.43 in 7.0 mi Calm Calm - N/A   Overcast
8:28 PM 37.4 °F - 37.4 °F 100% 29.43 in 6.0 mi Calm Calm - N/A   Overcast
8:54 PM 37.9 °F 33.5 °F 37.0 °F 97% 29.45 in 4.0 mi SSW 5.8 mph - N/A   Overcast
9:54 PM 39.0 °F 32.8 °F 37.9 °F 96% 29.46 in 5.0 mi SSW 9.2 mph - 0.01 in Rain Light Rain
10:05 PM 39.2 °F 33.6 °F 37.4 °F 93% 29.44 in 6.0 mi SW 8.1 mph - 0.00 in Rain Light Rain
10:52 PM 41.0 °F 32.2 °F 37.4 °F 87% 29.45 in 7.0 mi WSW 18.4 mph 21.9 mph 0.01 in Rain Light Rain
10:54 PM 41.0 °F 33.9 °F 37.9 °F 89% 29.47 in 7.0 mi WSW 12.7 mph 21.9 mph 0.01 in Rain Light Rain
11:24 PM 39.2 °F 31.6 °F 35.6 °F 87% 29.45 in 10.0 mi WSW 12.7 mph - 0.02 in Rain Light Rain
11:37 PM 37.4 °F 29.3 °F 35.6 °F 93% 29.46 in 10.0 mi WSW 12.7 mph 20.7 mph 0.03 in Rain Light Rain
11:54 PM 37.9 °F 28.5 °F 35.1 °F 89% 29.48 in 10.0 mi WSW 17.3 mph 25.3 mph 0.03 in Rain Light Rain